{"data":{"norad_id":53143,"intl_designator":"2022-083M","name":"STARLINK-4102","alt_names":[],"object_type":"PAYLOAD","status":"ACTIVE","operator":null,"country":"US","launch_date":"2022-07-17","launch_site_code":"AFETR","launch_vehicle":null,"mission":null,"orbit_class":"UNKNOWN","rcs_meters":null,"size_class":null,"mass_kg":null,"dimensions":null,"purposes":["comms"],"wikipedia_slug":null,"has_3d_model":false,"image_url":null,"decayed_at":null,"tle_current":{"epoch":"2026-09-20T04:00:03.000096Z","epoch_age_seconds":101064,"freshness":"FRESH","line1":"1 53143U 22083M   26263.16670139  .00143149  00000+0  32509-2 0  9995","line2":"2 53143  53.1598  11.3284 0001145  89.9972 150.6409 15.42039989  5890","mean_motion":15.42039989,"eccentricity":0.0001145,"inclination_deg":53.1598,"raan_deg":11.3284,"arg_perigee_deg":89.9972,"mean_anomaly_deg":150.6409,"bstar":0.0032509,"rev_number":589,"period_min":93.382792292814,"perigee_km":439.30870126924,"apogee_km":440.87007511213,"semimajor_km":6818.2263881907,"source":"CELESTRAK","updated_at":"2026-09-20T09:00:40.180467Z"}}}